C/2022 E3 ( ZTF )

Japanese version
Home page
Updated on February 10, 2024

---------------------------------------------------------------------

* Profile

Discovery Date March 2, 2022
Magnitude 17.2 mag
Discoverer Zwicky Transient Facility (ZTF)

* Pictures

* Orbital Elements

Epoch 2023 Sept. 13.0 TT = JDT 2460200.5
T 2023 Jan. 12.77470 TT                                 Rudenko
q   1.1122654            (2000.0)            P               Q
z  -0.0001930      Peri.  145.81379     -0.60064731     -0.07342768
 +/-0.0000003      Node   302.55594     +0.33749743     +0.87941876
e   1.0002147      Incl.  109.16856     +0.72478845     -0.47035202
>From 8197 observations 2021 July 10-2023 Dec. 11, mean residual 0".6.

* Finding Charts

* Magnitudes Graph

        m1 = -2.0 + 5 log d + 25   log r  [    ,-288]  (             - 2022 Mar. 30)
        m1 =  7.0 + 5 log d + 10.0 log r  [-288,    ]  (2022 Mar. 30 -             )

---------------------------------------------------------------------

The orbital elements are published on M.P.E.C. 2023-X256.
The charts are made with StellaNavigator Ver.10 (AstroArts).
The magnitudes graphs are made with Comet for Windows.

---------------------------------------------------------------------

Copyright(C) Seiichi Yoshida (comet@aerith.net). All rights reserved.